Concordia, KS

11:00 AM CST on November 21, 2019 (GMT -0600)
Blosser Municipal

Weather History for KCNK - September, 2019

Change the Weather History Date:

Monday, September 30, 2019

  Actual Average Record
Temperature  
Mean Temperature 85 °F 62 °F  
Max Temperature 93 °F 74 °F 95 °F (1994)
Min Temperature 76 °F 50 °F 29 °F (1895)
Degree Days  
Heating Degree Days 0 5  
Month to date heating degree days 3 70  
Since 1 July heating degree days 3 73  
Cooling Degree Days 20 2  
Month to date cooling degree days 371 160  
Year to date cooling degree days 1648 1326  
Growing Degree Days 33 (Base 50)    
Moisture  
Dew Point 70 °F    
Average Humidity 67    
Maximum Humidity 85    
Minimum Humidity 49    
Precipitation  
Precipitation 0.00 in 0.09 in 3.16 in (1907)
Month to date precipitation 2.18 2.91  
Year to date precipitation 31.02 24.01  
Snow  
Snow 0.00 in 0.00 in T in (1911)
Month to date snowfall 0.0 0.0  
Year to date snowfall 32.3 13.7  
Since 1 July snowfall 0.0 0.0  
Snow Depth -    
Sea Level Pressure  
Sea Level Pressure 29.77 in    
Wind  
Wind Speed 22 mph (South)    
Max Wind Speed 30 mph    
Max Gust Speed 43 mph    
Visibility 10 miles    
Events      
T = Trace of Precipitation, MM = Missing Value Source: NWS Daily Summary

Daily Weather History Graph

Daily Weather History Graph

Search for Another Location

Airport or City:

Astronomy

Sep. 30, 2019 Rise Set
Actual Time 7:25 AM CDT 7:14 PM CDT
Civil Twilight 6:58 AM CDT 7:41 PM CDT
Nautical Twilight 6:27 AM CDT 8:12 PM CDT
Astronomical Twilight 5:56 AM CDT 8:44 PM CDT
Moon 9:30 AM CDT (9/30) 8:52 PM CDT (9/30)
Length of Visible Light 12h 42m
Length of Day
11h 49m
Waxing Crescent, 6% of the Moon is Illuminated
Sep 30
Waxing Crescent
Oct 5
First Quarter
Oct 13
Full
Oct 21
Last Quarter
Oct 27
New

Hourly Weather History & Observations

Time (CDT) Temp. Heat Index Dew Point Humidity Pressure Visibility Wind Dir Wind Speed Gust Speed Precip Events Conditions
12:55 AM 78.1 °F - 73.0 °F 84% 29.79 in 10.0 mi South 15.0 mph 27.6 mph N/A   Clear
1:55 AM 78.1 °F - 72.0 °F 81% 29.79 in 10.0 mi South 19.6 mph 31.1 mph N/A   Clear
2:55 AM 78.1 °F - 71.1 °F 79% 29.79 in 10.0 mi South 19.6 mph 34.5 mph N/A   Clear
3:55 AM 78.1 °F - 71.1 °F 79% 29.78 in 10.0 mi South 24.2 mph 36.8 mph N/A   Clear
4:55 AM 77.0 °F - 70.0 °F 79% 29.78 in 10.0 mi South 20.7 mph 32.2 mph N/A   Clear
5:55 AM 77.0 °F - 70.0 °F 79% 29.78 in 10.0 mi South 19.6 mph 33.4 mph N/A   Clear
6:55 AM 75.9 °F - 69.1 °F 79% 29.78 in 10.0 mi South 18.4 mph 29.9 mph N/A   Clear
7:55 AM 77.0 °F - 68.0 °F 74% 29.79 in 10.0 mi South 24.2 mph 33.4 mph N/A   Clear
8:55 AM 78.1 °F - 68.0 °F 71% 29.80 in 10.0 mi South 17.3 mph 34.5 mph N/A   Clear
9:55 AM 81.0 °F 83.8 °F 68.0 °F 65% 29.79 in 10.0 mi South 26.5 mph 42.6 mph N/A   Clear
10:55 AM 82.0 °F 84.9 °F 68.0 °F 62% 29.80 in 10.0 mi South 24.2 mph 34.5 mph N/A   Clear
11:55 AM 88.0 °F 92.1 °F 69.1 °F 53% 29.78 in 10.0 mi South 28.8 mph 36.8 mph N/A   Clear
1:55 PM 91.9 °F 96.9 °F 69.1 °F 47% 29.76 in 10.0 mi South 25.3 mph 35.7 mph N/A   Clear
2:55 PM 91.9 °F 96.9 °F 69.1 °F 47% 29.74 in 10.0 mi South 28.8 mph 40.3 mph N/A   Clear
3:55 PM 91.0 °F 95.6 °F 69.1 °F 48% 29.74 in 10.0 mi SSW 20.7 mph 34.5 mph N/A   Clear
4:55 PM 89.1 °F 93.7 °F 69.1 °F 52% 29.74 in 10.0 mi South 26.5 mph 35.7 mph N/A   Clear
5:55 PM 88.0 °F 91.4 °F 68.0 °F 51% 29.74 in 10.0 mi South 19.6 mph 35.7 mph N/A   Clear
6:55 PM 84.0 °F 87.8 °F 69.1 °F 61% 29.74 in 10.0 mi South 17.3 mph 25.3 mph N/A   Clear
7:55 PM 82.9 °F 87.0 °F 70.0 °F 65% 29.75 in 10.0 mi South 12.7 mph - N/A   Clear
8:55 PM 82.9 °F 87.0 °F 70.0 °F 65% 29.76 in 10.0 mi South 13.8 mph 21.9 mph N/A   Clear
9:55 PM 82.0 °F 85.9 °F 70.0 °F 67% 29.77 in 10.0 mi South 12.7 mph 25.3 mph N/A   Clear
10:55 PM 81.0 °F 84.4 °F 70.0 °F 69% 29.77 in 10.0 mi South 12.7 mph 28.8 mph N/A   Clear
11:55 PM 81.0 °F 84.4 °F 70.0 °F 69% 29.78 in 10.0 mi South 11.5 mph 26.5 mph N/A   Clear